Time,TemperatureF,DewpointF,PressureIn,WindDirection,WindDirectionDegrees,WindSpeedMPH,WindSpeedGustMPH,Humidity,HourlyPrecipIn,Conditions,Clouds,dailyrainin,SolarRadiationWatts/m^2,SoftwareType,DateUTC
2013-03-29 00:00:00,58.5,46.4,30.22,North,11,0.0,3.0,64,0.00,,SKC,0.00,79.00,VWS V14.01,2013-03-29 04:00:00,
2013-03-29 00:05:00,58.4,46.3,30.22,North,11,0.0,0.0,64,0.00,,SKC,0.00,79.00,VWS V14.01,2013-03-29 04:05:00,
2013-03-29 00:10:00,58.4,46.3,30.22,North,11,0.0,1.0,64,0.00,,SKC,0.00,79.00,VWS V14.01,2013-03-29 04:10:00,
2013-03-29 00:15:00,58.4,46.3,30.22,North,11,0.0,2.0,64,0.00,,SKC,0.00,79.00,VWS V14.01,2013-03-29 04:15:00,
2013-03-29 00:20:00,58.4,46.3,30.22,North,11,0.0,0.0,64,0.00,,SKC,0.00,79.00,VWS V14.01,2013-03-29 04:20:00,
2013-03-29 00:25:00,58.4,46.7,30.22,North,11,0.0,1.0,65,0.00,,SKC,0.00,79.00,VWS V14.01,2013-03-29 04:25:00,
2013-03-29 00:30:00,58.4,46.3,30.22,North,11,0.0,0.0,64,0.00,,SKC,0.00,79.00,VWS V14.01,2013-03-29 04:30:00,
2013-03-29 00:35:00,58.4,46.3,30.22,North,11,0.0,2.0,64,0.00,,SKC,0.00,79.00,VWS V14.01,2013-03-29 04:35:00,
2013-03-29 00:40:00,58.3,46.2,30.22,North,11,2.0,2.0,64,0.00,,SKC,0.00,79.00,VWS V14.01,2013-03-29 04:40:00,
2013-03-29 00:45:00,58.3,46.2,30.22,North,11,0.0,2.0,64,0.00,,SKC,0.00,79.00,VWS V14.01,2013-03-29 04:45:00,
2013-03-29 00:50:00,58.3,45.8,30.22,North,11,2.0,3.0,63,0.00,,SKC,0.00,79.00,VWS V14.01,2013-03-29 04:50:00,
2013-03-29 00:55:00,58.4,45.9,30.22,North,11,2.0,3.0,63,0.00,,SKC,0.00,79.00,VWS V14.01,2013-03-29 04:55:00,
2013-03-29 01:00:00,58.5,46.0,30.22,North,11,1.0,3.0,63,0.00,,SKC,0.00,79.00,VWS V14.01,2013-03-29 05:00:00,
2013-03-29 01:05:00,58.6,46.5,30.21,North,11,2.0,3.0,64,0.00,,SKC,0.00,79.00,VWS V14.01,2013-03-29 05:05:00,
2013-03-29 01:10:00,58.6,46.9,30.21,North,11,0.0,3.0,65,0.00,,SKC,0.00,79.00,VWS V14.01,2013-03-29 05:10:00,
2013-03-29 01:15:00,58.7,47.4,30.21,North,11,2.0,2.0,66,0.00,,SKC,0.00,79.00,VWS V14.01,2013-03-29 05:15:00,
2013-03-29 01:20:00,58.6,47.3,30.21,North,11,2.0,2.0,66,0.00,,SKC,0.00,79.00,VWS V14.01,2013-03-29 05:20:00,
2013-03-29 01:25:00,58.6,47.7,30.21,North,11,0.0,1.0,67,0.00,,SKC,0.00,79.00,VWS V14.01,2013-03-29 05:25:00,
2013-03-29 01:30:00,58.6,47.7,30.21,North,11,0.0,2.0,67,0.00,,SKC,0.00,79.00,VWS V14.01,2013-03-29 05:30:00,
2013-03-29 01:35:00,58.6,48.1,30.21,North,11,1.0,2.0,68,0.00,,SKC,0.00,79.00,VWS V14.01,2013-03-29 05:35:00,
2013-03-29 01:40:00,58.4,47.5,30.21,North,11,2.0,4.0,67,0.00,,SKC,0.00,79.00,VWS V14.01,2013-03-29 05:40:00,
2013-03-29 01:45:00,58.4,47.1,30.21,North,11,1.0,4.0,66,0.00,,SKC,0.00,79.00,VWS V14.01,2013-03-29 05:45:00,
2013-03-29 01:50:00,58.5,46.4,30.21,North,11,2.0,4.0,64,0.00,,SKC,0.00,79.00,VWS V14.01,2013-03-29 05:50:00,
2013-03-29 01:55:00,58.7,46.6,30.21,North,11,2.0,4.0,64,0.00,,SKC,0.00,79.00,VWS V14.01,2013-03-29 05:55:00,
2013-03-29 02:00:00,58.9,46.8,30.21,North,11,1.0,3.0,64,0.00,,SKC,0.00,79.00,VWS V14.01,2013-03-29 06:00:00,
2013-03-29 02:05:00,59.1,47.4,30.21,North,11,1.0,2.0,65,0.00,,SKC,0.00,79.00,VWS V14.01,2013-03-29 06:05:00,
2013-03-29 02:10:00,59.2,47.5,30.21,North,11,1.0,3.0,65,0.00,,SKC,0.00,79.00,VWS V14.01,2013-03-29 06:10:00,
2013-03-29 02:15:00,59.2,47.0,30.21,North,11,2.0,3.0,64,0.00,,SKC,0.00,79.00,VWS V14.01,2013-03-29 06:15:00,
2013-03-29 02:20:00,59.3,46.7,30.21,North,11,1.0,4.0,63,0.00,,SKC,0.00,79.00,VWS V14.01,2013-03-29 06:20:00,
2013-03-29 02:25:00,59.2,46.6,30.20,North,11,2.0,3.0,63,0.00,,SKC,0.00,79.00,VWS V14.01,2013-03-29 06:25:00,
2013-03-29 02:30:00,59.0,46.4,30.20,North,11,2.0,3.0,63,0.00,,SKC,0.00,79.00,VWS V14.01,2013-03-29 06:30:00,
2013-03-29 02:35:00,58.8,46.7,30.20,North,11,2.0,5.0,64,0.00,,SKC,0.00,79.00,VWS V14.01,2013-03-29 06:35:00,
2013-03-29 02:40:00,58.6,46.9,30.20,North,11,2.0,4.0,65,0.00,,SKC,0.00,79.00,VWS V14.01,2013-03-29 06:40:00,
2013-03-29 02:45:00,58.5,47.2,30.20,North,11,2.0,3.0,66,0.00,,SKC,0.00,79.00,VWS V14.01,2013-03-29 06:45:00,
2013-03-29 02:50:00,58.3,47.8,30.20,North,11,1.0,2.0,68,0.00,,SKC,0.00,79.00,VWS V14.01,2013-03-29 06:50:00,
2013-03-29 02:55:00,58.2,48.1,30.20,North,11,2.0,2.0,69,0.00,,SKC,0.00,79.00,VWS V14.01,2013-03-29 06:55:00,
2013-03-29 03:00:00,58.0,48.3,30.20,North,11,2.0,3.0,70,0.00,,SKC,0.00,79.00,VWS V14.01,2013-03-29 07:00:00,
2013-03-29 03:05:00,57.7,48.4,30.20,North,11,2.0,2.0,71,0.00,,SKC,0.00,79.00,VWS V14.01,2013-03-29 07:05:00,
2013-03-29 03:10:00,57.5,48.6,30.20,North,11,2.0,4.0,72,0.00,,SKC,0.00,79.00,VWS V14.01,2013-03-29 07:10:00,
2013-03-29 03:15:00,57.3,48.7,30.19,North,11,2.0,4.0,73,0.00,,SKC,0.00,79.00,VWS V14.01,2013-03-29 07:15:00,
2013-03-29 03:20:00,57.0,48.4,30.19,North,10,3.0,3.0,73,0.00,,SKC,0.00,79.00,VWS V14.01,2013-03-29 07:20:00,
2013-03-29 03:25:00,56.8,48.6,30.19,North,10,2.0,3.0,74,0.00,,SKC,0.00,79.00,VWS V14.01,2013-03-29 07:25:00,
2013-03-29 03:30:00,56.7,48.5,30.19,North,10,1.0,3.0,74,0.00,,SKC,0.00,79.00,VWS V14.01,2013-03-29 07:30:00,
2013-03-29 03:35:00,56.6,48.8,30.19,North,10,2.0,4.0,75,0.00,,SKC,0.00,79.00,VWS V14.01,2013-03-29 07:35:00,
2013-03-29 03:40:00,56.4,48.6,30.19,North,5,4.0,4.0,75,0.00,,SKC,0.00,79.00,VWS V14.01,2013-03-29 07:40:00,
2013-03-29 03:45:00,56.3,48.8,30.19,North,5,1.0,4.0,76,0.00,,SKC,0.00,79.00,VWS V14.01,2013-03-29 07:45:00,
2013-03-29 03:50:00,56.2,48.8,30.19,North,5,3.0,4.0,76,0.00,,SKC,0.00,79.00,VWS V14.01,2013-03-29 07:50:00,
2013-03-29 03:55:00,56.0,48.5,30.19,North,5,2.0,4.0,76,0.00,,SKC,0.00,79.00,VWS V14.01,2013-03-29 07:55:00,
2013-03-29 04:00:00,55.9,48.8,30.19,North,5,2.0,5.0,77,0.00,,SKC,0.00,79.00,VWS V14.01,2013-03-29 08:00:00,
2013-03-29 04:05:00,55.9,48.8,30.18,North,5,3.0,4.0,77,0.00,,SKC,0.00,79.00,VWS V14.01,2013-03-29 08:05:00,
2013-03-29 04:10:00,55.8,48.7,30.18,North,5,2.0,3.0,77,0.00,,SKC,0.00,79.00,VWS V14.01,2013-03-29 08:10:00,
2013-03-29 04:15:00,55.8,49.0,30.18,North,5,1.0,3.0,78,0.00,,SKC,0.00,79.00,VWS V14.01,2013-03-29 08:15:00,
2013-03-29 04:20:00,55.7,49.0,30.18,North,5,2.0,3.0,78,0.00,,SKC,0.00,79.00,VWS V14.01,2013-03-29 08:20:00,
2013-03-29 04:25:00,55.7,49.0,30.18,North,5,1.0,3.0,78,0.00,,SKC,0.00,79.00,VWS V14.01,2013-03-29 08:25:00,
2013-03-29 04:30:00,55.6,48.9,30.18,North,5,3.0,4.0,78,0.00,,SKC,0.00,79.00,VWS V14.01,2013-03-29 08:30:00,
2013-03-29 04:35:00,55.6,48.9,30.18,North,5,1.0,3.0,78,0.00,,SKC,0.00,79.00,VWS V14.01,2013-03-29 08:35:00,
2013-03-29 04:40:00,55.6,48.5,30.18,North,5,3.0,3.0,77,0.00,,SKC,0.00,79.00,VWS V14.01,2013-03-29 08:40:00,
2013-03-29 04:45:00,55.5,48.4,30.18,North,5,2.0,3.0,77,0.00,,SKC,0.00,79.00,VWS V14.01,2013-03-29 08:45:00,
2013-03-29 04:50:00,55.5,48.4,30.18,North,5,2.0,4.0,77,0.00,,SKC,0.00,79.00,VWS V14.01,2013-03-29 08:50:00,
2013-03-29 04:55:00,55.5,48.4,30.18,North,5,2.0,3.0,77,0.00,,SKC,0.00,79.00,VWS V14.01,2013-03-29 08:55:00,
2013-03-29 05:00:00,55.5,48.4,30.18,North,5,1.0,3.0,77,0.00,,SKC,0.00,79.00,VWS V14.01,2013-03-29 09:00:00,
2013-03-29 05:05:00,55.4,48.3,30.18,North,5,1.0,3.0,77,0.00,,SKC,0.00,79.00,VWS V14.01,2013-03-29 09:05:00,
2013-03-29 05:10:00,55.4,48.3,30.18,North,5,2.0,3.0,77,0.00,,SKC,0.00,79.00,VWS V14.01,2013-03-29 09:10:00,
2013-03-29 05:15:00,55.4,48.3,30.18,North,5,1.0,3.0,77,0.00,,SKC,0.00,79.00,VWS V14.01,2013-03-29 09:15:00,
2013-03-29 05:19:00,55.4,48.3,30.18,North,5,2.0,3.0,77,0.00,,SKC,0.00,79.00,VWS V14.01,2013-03-29 09:19:00,
2013-03-29 05:24:00,55.3,48.2,30.19,North,5,3.0,3.0,77,0.00,,SKC,0.00,79.00,VWS V14.01,2013-03-29 09:24:00,
2013-03-29 05:29:00,55.3,48.2,30.19,North,5,2.0,4.0,77,0.00,,SKC,0.00,79.00,VWS V14.01,2013-03-29 09:29:00,
2013-03-29 05:34:00,55.3,48.2,30.19,North,5,4.0,4.0,77,0.00,,SKC,0.00,79.00,VWS V14.01,2013-03-29 09:34:00,
2013-03-29 05:39:00,55.4,48.7,30.19,North,5,1.0,3.0,78,0.00,,SKC,0.00,79.00,VWS V14.01,2013-03-29 09:39:00,
2013-03-29 05:44:00,55.3,48.6,30.19,North,5,0.0,3.0,78,0.00,,SKC,0.00,79.00,VWS V14.01,2013-03-29 09:44:00,
2013-03-29 05:49:00,55.3,48.6,30.19,North,5,2.0,3.0,78,0.00,,SKC,0.00,79.00,VWS V14.01,2013-03-29 09:49:00,
2013-03-29 05:54:00,55.2,48.5,30.19,North,5,1.0,3.0,78,0.00,,SKC,0.00,79.00,VWS V14.01,2013-03-29 09:54:00,
2013-03-29 05:59:00,55.1,48.7,30.19,North,5,2.0,3.0,79,0.00,,SKC,0.00,79.00,VWS V14.01,2013-03-29 09:59:00,
2013-03-29 06:04:00,55.0,48.3,30.19,North,5,1.0,3.0,78,0.00,,SKC,0.00,79.00,VWS V14.01,2013-03-29 10:04:00,
2013-03-29 06:09:00,55.0,48.3,30.20,North,5,3.0,3.0,78,0.00,,SKC,0.00,79.00,VWS V14.01,2013-03-29 10:09:00,
2013-03-29 06:14:00,54.9,48.2,30.20,North,5,3.0,4.0,78,0.00,,SKC,0.00,79.00,VWS V14.01,2013-03-29 10:14:00,
2013-03-29 06:19:00,55.0,48.3,30.20,North,5,3.0,4.0,78,0.00,,SKC,0.00,79.00,VWS V14.01,2013-03-29 10:19:00,
2013-03-29 06:24:00,55.0,48.3,30.20,North,5,2.0,4.0,78,0.00,,SKC,0.00,79.00,VWS V14.01,2013-03-29 10:24:00,
2013-03-29 06:29:00,55.0,48.3,30.20,North,5,3.0,4.0,78,0.00,,SKC,0.00,79.00,VWS V14.01,2013-03-29 10:29:00,
2013-03-29 06:34:00,55.0,48.3,30.20,North,5,2.0,4.0,78,0.00,,SKC,0.00,79.00,VWS V14.01,2013-03-29 10:34:00,
2013-03-29 06:39:00,54.9,48.2,30.20,North,5,2.0,3.0,78,0.00,,SKC,0.00,79.00,VWS V14.01,2013-03-29 10:39:00,
2013-03-29 06:44:00,54.9,48.5,30.20,North,5,1.0,4.0,79,0.00,,SKC,0.00,79.00,VWS V14.01,2013-03-29 10:44:00,
2013-03-29 06:49:00,54.9,48.5,30.20,North,5,2.0,3.0,79,0.00,,SKC,0.00,79.00,VWS V14.01,2013-03-29 10:49:00,
2013-03-29 06:54:00,54.9,48.5,30.20,North,5,2.0,4.0,79,0.00,,SKC,0.00,79.00,VWS V14.01,2013-03-29 10:54:00,
2013-03-29 06:59:00,54.8,48.4,30.21,North,5,1.0,4.0,79,0.00,,SKC,0.00,79.00,VWS V14.01,2013-03-29 10:59:00,
2013-03-29 07:04:00,54.9,48.5,30.21,North,5,1.0,3.0,79,0.00,,SKC,0.00,79.00,VWS V14.01,2013-03-29 11:04:00,
2013-03-29 07:09:00,54.8,48.4,30.21,North,5,2.0,4.0,79,0.00,,SKC,0.00,81.00,VWS V14.01,2013-03-29 11:09:00,
2013-03-29 07:14:00,54.8,48.4,30.22,North,5,1.0,4.0,79,0.00,,SKC,0.00,84.00,VWS V14.01,2013-03-29 11:14:00,
2013-03-29 07:19:00,54.9,48.5,30.22,North,5,2.0,2.0,79,0.00,,SKC,0.00,86.00,VWS V14.01,2013-03-29 11:19:00,
2013-03-29 07:24:00,54.9,48.5,30.22,North,5,1.0,3.0,79,0.00,,SKC,0.00,91.00,VWS V14.01,2013-03-29 11:24:00,
2013-03-29 07:29:00,54.9,48.5,30.22,North,5,2.0,3.0,79,0.00,,SKC,0.00,95.00,VWS V14.01,2013-03-29 11:29:00,
2013-03-29 07:34:00,54.9,48.5,30.22,North,5,1.0,3.0,79,0.00,,SKC,0.00,100.00,VWS V14.01,2013-03-29 11:34:00,
2013-03-29 07:39:00,55.0,48.6,30.22,North,5,2.0,2.0,79,0.00,,SKC,0.00,113.00,VWS V14.01,2013-03-29 11:39:00,
2013-03-29 07:44:00,55.1,48.7,30.22,North,5,3.0,4.0,79,0.00,,SKC,0.00,123.00,VWS V14.01,2013-03-29 11:44:00,
2013-03-29 07:49:00,55.4,49.0,30.22,North,5,3.0,4.0,79,0.00,,SKC,0.00,132.00,VWS V14.01,2013-03-29 11:49:00,
2013-03-29 07:54:00,55.6,48.9,30.23,North,5,3.0,3.0,78,0.00,,SKC,0.00,148.00,VWS V14.01,2013-03-29 11:54:00,
2013-03-29 07:59:00,55.9,49.2,30.23,North,5,2.0,4.0,78,0.00,,SKC,0.00,158.00,VWS V14.01,2013-03-29 11:59:00,
2013-03-29 08:04:00,56.2,49.4,30.23,North,9,3.0,5.0,78,0.00,,SKC,0.00,183.00,VWS V14.01,2013-03-29 12:04:00,
2013-03-29 08:09:00,56.6,49.5,30.23,NNW,348,2.0,5.0,77,0.00,,SKC,0.00,193.00,VWS V14.01,2013-03-29 12:09:00,
2013-03-29 08:14:00,57.1,50.0,30.23,NNW,327,3.0,4.0,77,0.00,,SKC,0.00,220.00,VWS V14.01,2013-03-29 12:14:00,
2013-03-29 08:19:00,57.6,50.1,30.23,North,350,4.0,4.0,76,0.00,,SKC,0.00,232.00,VWS V14.01,2013-03-29 12:19:00,
2013-03-29 08:24:00,58.3,50.4,30.23,North,351,4.0,5.0,75,0.00,,SKC,0.00,258.00,VWS V14.01,2013-03-29 12:24:00,
2013-03-29 08:29:00,58.8,50.5,30.23,NNW,334,6.0,7.0,74,0.00,,SKC,0.00,278.00,VWS V14.01,2013-03-29 12:29:00,
2013-03-29 08:34:00,59.4,50.8,30.24,NNW,344,4.0,5.0,73,0.00,,SKC,0.00,295.00,VWS V14.01,2013-03-29 12:34:00,
2013-03-29 08:39:00,60.0,51.0,30.24,NNW,341,5.0,8.0,72,0.00,,SKC,0.00,309.00,VWS V14.01,2013-03-29 12:39:00,
2013-03-29 08:44:00,60.6,50.8,30.24,NNW,347,4.0,6.0,70,0.00,,SKC,0.00,332.00,VWS V14.01,2013-03-29 12:44:00,
2013-03-29 08:49:00,61.1,50.9,30.24,North,360,5.0,7.0,69,0.00,,SKC,0.00,350.00,VWS V14.01,2013-03-29 12:49:00,
2013-03-29 08:54:00,61.6,51.0,30.24,NNW,340,6.0,7.0,68,0.00,,SKC,0.00,367.00,VWS V14.01,2013-03-29 12:54:00,
2013-03-29 08:59:00,62.2,51.1,30.24,North,355,4.0,8.0,67,0.00,,SKC,0.00,385.00,VWS V14.01,2013-03-29 12:59:00,
2013-03-29 09:04:00,62.8,51.3,30.24,North,9,5.0,11.0,66,0.00,,SKC,0.00,408.00,VWS V14.01,2013-03-29 13:04:00,
2013-03-29 09:09:00,63.2,51.2,30.24,North,355,6.0,10.0,65,0.00,,SKC,0.00,425.00,VWS V14.01,2013-03-29 13:09:00,
2013-03-29 09:14:00,63.6,51.2,30.25,North,5,5.0,11.0,64,0.00,,SKC,0.00,443.00,VWS V14.01,2013-03-29 13:14:00,
2013-03-29 09:19:00,64.1,51.3,30.25,NNW,338,6.0,12.0,63,0.00,,SKC,0.00,466.00,VWS V14.01,2013-03-29 13:19:00,
2013-03-29 09:24:00,64.6,51.3,30.25,NW,319,6.0,12.0,62,0.00,,SKC,0.00,454.00,VWS V14.01,2013-03-29 13:24:00,
2013-03-29 09:29:00,65.0,51.7,30.25,North,5,6.0,8.0,62,0.00,,SKC,0.00,468.00,VWS V14.01,2013-03-29 13:29:00,
2013-03-29 09:34:00,65.3,51.1,30.25,NNW,346,9.0,11.0,60,0.00,,SKC,0.00,515.00,VWS V14.01,2013-03-29 13:34:00,
2013-03-29 09:39:00,65.8,52.0,30.25,North,351,8.0,11.0,61,0.00,,SKC,0.00,533.00,VWS V14.01,2013-03-29 13:39:00,
2013-03-29 09:44:00,66.1,51.8,30.25,North,360,12.0,12.0,60,0.00,,SKC,0.00,543.00,VWS V14.01,2013-03-29 13:44:00,
2013-03-29 09:49:00,66.3,50.6,30.25,NNW,333,8.0,12.0,57,0.00,,SKC,0.00,566.00,VWS V14.01,2013-03-29 13:49:00,
2013-03-29 09:54:00,66.6,51.4,30.26,North,9,6.0,12.0,58,0.00,,SKC,0.00,584.00,VWS V14.01,2013-03-29 13:54:00,
2013-03-29 09:59:00,67.3,52.0,30.26,NNE,15,10.0,10.0,58,0.00,,SKC,0.00,596.00,VWS V14.01,2013-03-29 13:59:00,
2013-03-29 10:04:00,67.5,51.3,30.26,NNW,337,5.0,11.0,56,0.00,,SKC,0.00,613.00,VWS V14.01,2013-03-29 14:04:00,
2013-03-29 10:09:00,67.9,52.1,30.26,NNE,13,11.0,11.0,57,0.00,,SKC,0.00,631.00,VWS V14.01,2013-03-29 14:09:00,
2013-03-29 10:14:00,67.9,51.2,30.26,NNE,13,5.0,13.0,55,0.00,,SKC,0.00,647.00,VWS V14.01,2013-03-29 14:14:00,
2013-03-29 10:19:00,68.1,50.8,30.26,North,11,5.0,13.0,54,0.00,,SKC,0.00,661.00,VWS V14.01,2013-03-29 14:19:00,
2013-03-29 10:24:00,68.5,50.7,30.26,NNW,346,11.0,12.0,53,0.00,,SKC,0.00,675.00,VWS V14.01,2013-03-29 14:24:00,
2013-03-29 10:29:00,68.6,51.3,30.26,North,5,7.0,13.0,54,0.00,,SKC,0.00,691.00,VWS V14.01,2013-03-29 14:29:00,
2013-03-29 10:34:00,68.9,51.6,30.26,North,355,7.0,11.0,54,0.00,,SKC,0.00,700.00,VWS V14.01,2013-03-29 14:34:00,
2013-03-29 10:39:00,69.4,51.5,30.26,NNW,341,5.0,11.0,53,0.00,,SKC,0.00,717.00,VWS V14.01,2013-03-29 14:39:00,
2013-03-29 10:44:00,69.8,51.4,30.26,NNW,341,10.0,12.0,52,0.00,,SKC,0.00,694.00,VWS V14.01,2013-03-29 14:44:00,
2013-03-29 10:49:00,69.8,51.4,30.26,NNW,348,7.0,11.0,52,0.00,,SKC,0.00,740.00,VWS V14.01,2013-03-29 14:49:00,
2013-03-29 10:54:00,69.8,51.4,30.26,North,5,10.0,11.0,52,0.00,,SKC,0.00,759.00,VWS V14.01,2013-03-29 14:54:00,
2013-03-29 10:59:00,69.9,50.4,30.26,North,11,12.0,12.0,50,0.00,,SKC,0.00,772.00,VWS V14.01,2013-03-29 14:59:00,
2013-03-29 11:04:00,70.3,50.3,30.26,North,9,7.0,13.0,49,0.00,,SKC,0.00,789.00,VWS V14.01,2013-03-29 15:04:00,
2013-03-29 11:09:00,70.0,51.1,30.26,North,9,7.0,10.0,51,0.00,,SKC,0.00,810.00,VWS V14.01,2013-03-29 15:09:00,
2013-03-29 11:14:00,70.2,51.2,30.26,NNE,24,7.0,12.0,51,0.00,,SKC,0.00,814.00,VWS V14.01,2013-03-29 15:14:00,
2013-03-29 11:19:00,69.9,50.4,30.26,North,360,10.0,11.0,50,0.00,,SKC,0.00,819.00,VWS V14.01,2013-03-29 15:19:00,
2013-03-29 11:24:00,70.3,51.3,30.26,North,360,6.0,11.0,51,0.00,,SKC,0.00,847.00,VWS V14.01,2013-03-29 15:24:00,
2013-03-29 11:29:00,70.2,51.2,30.26,NNE,13,8.0,8.0,51,0.00,,SKC,0.00,858.00,VWS V14.01,2013-03-29 15:29:00,
2013-03-29 11:34:00,70.4,50.9,30.26,North,11,8.0,13.0,50,0.00,,SKC,0.00,882.00,VWS V14.01,2013-03-29 15:34:00,
2013-03-29 11:39:00,70.7,50.6,30.26,NNW,342,3.0,5.0,49,0.00,,SKC,0.00,816.00,VWS V14.01,2013-03-29 15:39:00,
2013-03-29 11:44:00,71.0,50.3,30.26,ENE,59,5.0,11.0,48,0.00,,SKC,0.00,898.00,VWS V14.01,2013-03-29 15:44:00,
2013-03-29 11:49:00,71.1,50.4,30.26,NNE,22,7.0,10.0,48,0.00,,SKC,0.00,932.00,VWS V14.01,2013-03-29 15:49:00,
2013-03-29 11:54:00,71.5,51.4,30.26,North,11,11.0,12.0,49,0.00,,SKC,0.00,988.00,VWS V14.01,2013-03-29 15:54:00,
2013-03-29 11:59:00,71.1,51.0,30.26,NNW,335,9.0,9.0,49,0.00,,SKC,0.00,958.00,VWS V14.01,2013-03-29 15:59:00,
2013-03-29 12:04:00,71.3,51.2,30.25,NNE,30,2.0,9.0,49,0.00,,SCT055,0.00,954.00,VWS V14.01,2013-03-29 16:04:00,
2013-03-29 12:09:00,71.4,51.8,30.25,NNE,15,10.0,12.0,50,0.00,,SCT055,0.00,1018.00,VWS V14.01,2013-03-29 16:09:00,
2013-03-29 12:14:00,71.1,49.9,30.25,NNE,26,3.0,6.0,47,0.00,,SCT055,0.00,301.00,VWS V14.01,2013-03-29 16:14:00,
2013-03-29 12:19:00,71.6,52.5,30.24,NNE,33,5.0,10.0,51,0.00,,SCT055,0.00,1049.00,VWS V14.01,2013-03-29 16:19:00,
2013-03-29 12:24:00,71.4,50.1,30.24,North,351,10.0,10.0,47,0.00,,SCT055,0.00,1014.00,VWS V14.01,2013-03-29 16:24:00,
2013-03-29 12:29:00,71.9,51.7,30.24,North,5,10.0,14.0,49,0.00,,SCT055,0.00,1025.00,VWS V14.01,2013-03-29 16:29:00,
2013-03-29 12:34:00,72.2,52.0,30.24,North,360,9.0,11.0,49,0.00,,SCT055,0.00,1053.00,VWS V14.01,2013-03-29 16:34:00,
2013-03-29 12:39:00,71.8,51.1,30.24,North,5,7.0,12.0,48,0.00,,SCT055,0.00,1093.00,VWS V14.01,2013-03-29 16:39:00,
2013-03-29 12:44:00,72.0,51.8,30.24,NNE,23,7.0,10.0,49,0.00,,SCT055,0.00,1039.00,VWS V14.01,2013-03-29 16:44:00,
2013-03-29 12:49:00,72.1,51.9,30.24,ENE,61,6.0,9.0,49,0.00,,SCT055,0.00,360.00,VWS V14.01,2013-03-29 16:49:00,
2013-03-29 12:54:00,72.1,51.9,30.23,North,5,13.0,16.0,49,0.00,,SCT055,0.00,1132.00,VWS V14.01,2013-03-29 16:54:00,
2013-03-29 12:59:00,71.7,50.4,30.23,NNE,17,11.0,11.0,47,0.00,,SCT055,0.00,297.00,VWS V14.01,2013-03-29 16:59:00,
2013-03-29 13:04:00,72.0,50.7,30.23,NNE,33,5.0,6.0,47,0.00,,SCT040,0.00,1072.00,VWS V14.01,2013-03-29 17:04:00,
2013-03-29 13:09:00,72.0,51.3,30.23,NE,36,2.0,4.0,48,0.00,,SCT040,0.00,1129.00,VWS V14.01,2013-03-29 17:09:00,
2013-03-29 13:14:00,72.2,51.4,30.22,North,5,13.0,13.0,48,0.00,,SCT040,0.00,336.00,VWS V14.01,2013-03-29 17:14:00,
2013-03-29 13:19:00,71.8,52.2,30.22,NE,45,10.0,10.0,50,0.00,,SCT040,0.00,1114.00,VWS V14.01,2013-03-29 17:19:00,
2013-03-29 13:24:00,72.4,51.6,30.22,NE,38,3.0,11.0,48,0.00,,SCT040,0.00,1130.00,VWS V14.01,2013-03-29 17:24:00,
2013-03-29 13:29:00,73.7,52.8,30.22,NE,34,5.0,10.0,48,0.00,,SCT040,0.00,1134.00,VWS V14.01,2013-03-29 17:29:00,
2013-03-29 13:34:00,73.0,52.2,30.22,North,5,12.0,12.0,48,0.00,,SCT040,0.00,418.00,VWS V14.01,2013-03-29 17:34:00,
2013-03-29 13:39:00,72.2,52.5,30.22,NE,34,11.0,12.0,50,0.00,,SCT040,0.00,415.00,VWS V14.01,2013-03-29 17:39:00,
2013-03-29 13:44:00,71.7,51.5,30.22,NE,53,3.0,7.0,49,0.00,,SCT040,0.00,374.00,VWS V14.01,2013-03-29 17:44:00,
2013-03-29 13:49:00,71.8,52.7,30.22,North,11,6.0,10.0,51,0.00,,SCT040,0.00,403.00,VWS V14.01,2013-03-29 17:49:00,
2013-03-29 13:54:00,71.9,52.8,30.22,North,11,9.0,11.0,51,0.00,,SCT040,0.00,1118.00,VWS V14.01,2013-03-29 17:54:00,
2013-03-29 13:59:00,71.8,52.7,30.21,NE,49,7.0,7.0,51,0.00,,SCT040,0.00,1092.00,VWS V14.01,2013-03-29 17:59:00,
2013-03-29 14:04:00,72.1,52.5,30.21,North,9,5.0,7.0,50,0.00,,SCT045,0.00,452.00,VWS V14.01,2013-03-29 18:04:00,
2013-03-29 14:09:00,72.2,52.5,30.21,NE,49,5.0,10.0,50,0.00,,SCT045,0.00,341.00,VWS V14.01,2013-03-29 18:09:00,
2013-03-29 14:14:00,71.9,51.2,30.21,ENE,65,2.0,7.0,48,0.00,,SCT045,0.00,357.00,VWS V14.01,2013-03-29 18:14:00,
2013-03-29 14:19:00,71.6,52.0,30.21,ENE,69,5.0,7.0,50,0.00,,SCT045,0.00,1144.00,VWS V14.01,2013-03-29 18:19:00,
2013-03-29 14:24:00,72.0,51.8,30.21,NNE,13,6.0,7.0,49,0.00,,SCT045,0.00,1143.00,VWS V14.01,2013-03-29 18:24:00,
2013-03-29 14:29:00,71.7,52.6,30.20,NNE,31,5.0,11.0,51,0.00,,SCT045,0.00,387.00,VWS V14.01,2013-03-29 18:29:00,
2013-03-29 14:34:00,71.6,52.5,30.21,NNE,29,7.0,11.0,51,0.00,,SCT045,0.00,450.00,VWS V14.01,2013-03-29 18:34:00,
2013-03-29 14:39:00,71.7,52.1,30.20,ENE,71,7.0,10.0,50,0.00,,SCT045,0.00,1014.00,VWS V14.01,2013-03-29 18:39:00,
2013-03-29 14:44:00,72.2,52.0,30.20,NNE,28,4.0,12.0,49,0.00,,SCT045,0.00,972.00,VWS V14.01,2013-03-29 18:44:00,
2013-03-29 14:49:00,72.1,52.5,30.20,NE,53,7.0,9.0,50,0.00,,SCT045,0.00,995.00,VWS V14.01,2013-03-29 18:49:00,
2013-03-29 14:54:00,72.1,53.0,30.19,NE,45,7.0,7.0,51,0.00,,SCT045,0.00,998.00,VWS V14.01,2013-03-29 18:54:00,
2013-03-29 14:59:00,72.1,52.5,30.19,NE,42,6.0,11.0,50,0.00,,SCT045,0.00,995.00,VWS V14.01,2013-03-29 18:59:00,
2013-03-29 15:04:00,72.2,52.0,30.19,NNE,21,4.0,10.0,49,0.00,,SCT045,0.00,1013.00,VWS V14.01,2013-03-29 19:04:00,
2013-03-29 15:09:00,72.4,52.2,30.19,NE,36,8.0,12.0,49,0.00,,SCT045,0.00,958.00,VWS V14.01,2013-03-29 19:09:00,
2013-03-29 15:14:00,72.6,52.4,30.19,NNE,23,5.0,11.0,49,0.00,,SCT055,0.00,911.00,VWS V14.01,2013-03-29 19:14:00,
2013-03-29 15:19:00,72.4,52.2,30.18,ENE,65,2.0,3.0,49,0.00,,SCT055,0.00,905.00,VWS V14.01,2013-03-29 19:19:00,
2013-03-29 15:24:00,72.6,53.5,30.18,NE,52,4.0,9.0,51,0.00,,SCT055,0.00,942.00,VWS V14.01,2013-03-29 19:24:00,
2013-03-29 15:29:00,72.5,51.7,30.18,NE,44,9.0,9.0,48,0.00,,SCT055,0.00,935.00,VWS V14.01,2013-03-29 19:29:00,
2013-03-29 15:34:00,71.9,52.3,30.19,North,5,10.0,12.0,50,0.00,,SCT055,0.00,294.00,VWS V14.01,2013-03-29 19:34:00,
2013-03-29 15:39:00,71.4,51.3,30.18,NNE,24,3.0,8.0,49,0.00,,SCT055,0.00,348.00,VWS V14.01,2013-03-29 19:39:00,
2013-03-29 15:44:00,71.3,51.2,30.18,North,5,3.0,11.0,49,0.00,,SCT055,0.00,874.00,VWS V14.01,2013-03-29 19:44:00,
2013-03-29 15:49:00,71.9,52.8,30.18,North,360,13.0,16.0,51,0.00,,SCT055,0.00,881.00,VWS V14.01,2013-03-29 19:49:00,
2013-03-29 15:54:00,72.0,52.4,30.18,ESE,102,3.0,10.0,50,0.00,,SCT055,0.00,810.00,VWS V14.01,2013-03-29 19:54:00,
2013-03-29 15:59:00,72.5,52.3,30.17,NE,44,6.0,6.0,49,0.00,,SCT055,0.00,805.00,VWS V14.01,2013-03-29 19:59:00,
2013-03-29 16:04:00,72.5,52.3,30.18,ENE,65,5.0,7.0,49,0.00,,SCT055,0.00,793.00,VWS V14.01,2013-03-29 20:04:00,
2013-03-29 16:09:00,72.1,51.3,30.17,North,360,5.0,10.0,48,0.00,,SCT055,0.00,793.00,VWS V14.01,2013-03-29 20:09:00,
2013-03-29 16:14:00,71.6,52.5,30.18,NNE,12,8.0,8.0,51,0.00,,SCT055,0.00,738.00,VWS V14.01,2013-03-29 20:14:00,
2013-03-29 16:19:00,72.5,52.8,30.17,NNE,18,5.0,6.0,50,0.00,,SCT055,0.00,751.00,VWS V14.01,2013-03-29 20:19:00,
2013-03-29 16:24:00,72.2,50.9,30.17,NNE,24,4.0,10.0,47,0.00,,SCT055,0.00,763.00,VWS V14.01,2013-03-29 20:24:00,
2013-03-29 16:29:00,72.3,51.5,30.17,North,355,6.0,11.0,48,0.00,,SCT055,0.00,735.00,VWS V14.01,2013-03-29 20:29:00,
2013-03-29 16:34:00,72.1,51.9,30.17,East,97,4.0,8.0,49,0.00,,SCT055,0.00,744.00,VWS V14.01,2013-03-29 20:34:00,
2013-03-29 16:39:00,72.4,52.2,30.17,NNE,13,6.0,12.0,49,0.00,,SCT055,0.00,733.00,VWS V14.01,2013-03-29 20:39:00,
2013-03-29 16:44:00,71.8,52.2,30.17,North,360,7.0,9.0,50,0.00,,SCT055,0.00,680.00,VWS V14.01,2013-03-29 20:44:00,
2013-03-29 16:49:00,71.9,52.3,30.18,NNE,17,5.0,6.0,50,0.00,,SCT055,0.00,640.00,VWS V14.01,2013-03-29 20:49:00,
2013-03-29 16:54:00,71.6,52.0,30.18,NNE,31,7.0,12.0,50,0.00,,SCT055,0.00,626.00,VWS V14.01,2013-03-29 20:54:00,
2013-03-29 16:59:00,71.5,51.9,30.17,ENE,58,1.0,9.0,50,0.00,,SCT050,0.00,596.00,VWS V14.01,2013-03-29 20:59:00,
2013-03-29 17:04:00,71.6,52.5,30.18,NE,42,9.0,11.0,51,0.00,,SCT050,0.00,589.00,VWS V14.01,2013-03-29 21:04:00,
2013-03-29 17:09:00,72.1,52.5,30.18,ENE,71,3.0,6.0,50,0.00,,SCT050,0.00,573.00,VWS V14.01,2013-03-29 21:09:00,
2013-03-29 17:14:00,72.0,52.9,30.18,NE,38,6.0,6.0,51,0.00,,SCT050,0.00,571.00,VWS V14.01,2013-03-29 21:14:00,
2013-03-29 17:19:00,71.9,51.7,30.18,NNE,30,6.0,11.0,49,0.00,,SCT050,0.00,568.00,VWS V14.01,2013-03-29 21:19:00,
2013-03-29 17:24:00,71.6,52.0,30.18,NE,47,9.0,10.0,50,0.00,,SCT050,0.00,536.00,VWS V14.01,2013-03-29 21:24:00,
2013-03-29 17:29:00,71.6,52.5,30.17,NE,56,7.0,9.0,51,0.00,,SCT050,0.00,513.00,VWS V14.01,2013-03-29 21:29:00,
2013-03-29 17:34:00,71.7,52.1,30.18,ENE,63,5.0,11.0,50,0.00,,SCT050,0.00,485.00,VWS V14.01,2013-03-29 21:34:00,
2013-03-29 17:39:00,71.7,52.1,30.18,NE,38,5.0,8.0,50,0.00,,SCT050,0.00,459.00,VWS V14.01,2013-03-29 21:39:00,
2013-03-29 17:44:00,71.3,51.7,30.18,NNE,33,3.0,7.0,50,0.00,,SCT050,0.00,438.00,VWS V14.01,2013-03-29 21:44:00,
2013-03-29 17:49:00,71.3,51.7,30.18,North,5,5.0,7.0,50,0.00,,SCT050,0.00,415.00,VWS V14.01,2013-03-29 21:49:00,
2013-03-29 17:54:00,70.9,52.9,30.18,NE,51,4.0,7.0,53,0.00,,SCT050,0.00,174.00,VWS V14.01,2013-03-29 21:54:00,
2013-03-29 17:59:00,70.8,53.3,30.18,NE,51,4.0,6.0,54,0.00,,SCT050,0.00,376.00,VWS V14.01,2013-03-29 21:59:00,
2013-03-29 18:04:00,70.8,52.8,30.18,NNE,14,10.0,10.0,53,0.00,,SCT050,0.00,353.00,VWS V14.01,2013-03-29 22:04:00,
2013-03-29 18:09:00,70.6,53.7,30.18,NE,51,3.0,7.0,55,0.00,,SCT050,0.00,334.00,VWS V14.01,2013-03-29 22:09:00,
2013-03-29 18:14:00,70.5,53.6,30.18,ENE,59,5.0,12.0,55,0.00,,SCT050,0.00,311.00,VWS V14.01,2013-03-29 22:14:00,
2013-03-29 18:19:00,70.4,54.5,30.18,NNE,22,8.0,9.0,57,0.00,,SCT050,0.00,292.00,VWS V14.01,2013-03-29 22:19:00,
2013-03-29 18:24:00,70.2,53.8,30.18,NE,53,7.0,10.0,56,0.00,,SCT050,0.00,271.00,VWS V14.01,2013-03-29 22:24:00,
2013-03-29 18:29:00,69.8,53.9,30.18,ENE,63,6.0,9.0,57,0.00,,SCT050,0.00,251.00,VWS V14.01,2013-03-29 22:29:00,
2013-03-29 18:34:00,69.6,54.2,30.18,East,81,3.0,5.0,58,0.00,,SCT050,0.00,230.00,VWS V14.01,2013-03-29 22:34:00,
2013-03-29 18:39:00,69.6,53.7,30.18,NE,52,7.0,9.0,57,0.00,,SCT050,0.00,211.00,VWS V14.01,2013-03-29 22:39:00,
2013-03-29 18:44:00,69.5,54.6,30.18,NE,51,5.0,7.0,59,0.00,,SCT050,0.00,193.00,VWS V14.01,2013-03-29 22:44:00,
2013-03-29 18:49:00,69.3,54.4,30.18,NNE,18,5.0,10.0,59,0.00,,SCT050,0.00,174.00,VWS V14.01,2013-03-29 22:49:00,
2013-03-29 18:54:00,69.0,54.1,30.18,North,5,3.0,10.0,59,0.00,,SCT050,0.00,156.00,VWS V14.01,2013-03-29 22:54:00,
2013-03-29 18:59:00,68.9,54.5,30.18,NE,40,7.0,8.0,60,0.00,,SCT050,0.00,141.00,VWS V14.01,2013-03-29 22:59:00,
2013-03-29 19:04:00,68.8,54.4,30.18,NE,35,1.0,5.0,60,0.00,,SCT050,0.00,128.00,VWS V14.01,2013-03-29 23:04:00,
2013-03-29 19:09:00,68.7,53.8,30.18,ENE,58,6.0,6.0,59,0.00,,SCT050,0.00,116.00,VWS V14.01,2013-03-29 23:09:00,
2013-03-29 19:14:00,68.6,54.2,30.18,NE,47,11.0,12.0,60,0.00,,SCT050,0.00,105.00,VWS V14.01,2013-03-29 23:14:00,
2013-03-29 19:19:00,68.4,54.0,30.18,ENE,78,6.0,10.0,60,0.00,,SCT050,0.00,98.00,VWS V14.01,2013-03-29 23:19:00,
2013-03-29 19:24:00,68.2,54.2,30.18,NE,51,4.0,10.0,61,0.00,,SCT050,0.00,95.00,VWS V14.01,2013-03-29 23:24:00,
2013-03-29 19:29:00,68.0,54.1,30.18,ENE,60,2.0,6.0,61,0.00,,SCT050,0.00,90.00,VWS V14.01,2013-03-29 23:29:00,
2013-03-29 19:34:00,67.9,54.0,30.18,NE,53,1.0,6.0,61,0.00,,SCT050,0.00,84.00,VWS V14.01,2013-03-29 23:34:00,
2013-03-29 19:39:00,67.7,53.8,30.18,ESE,103,4.0,8.0,61,0.00,,SCT050,0.00,83.00,VWS V14.01,2013-03-29 23:39:00,
2013-03-29 19:44:00,67.6,53.7,30.18,ENE,68,3.0,5.0,61,0.00,,SCT050,0.00,81.00,VWS V14.01,2013-03-29 23:44:00,
2013-03-29 19:49:00,67.4,53.5,30.18,ENE,71,3.0,5.0,61,0.00,,SCT050,0.00,79.00,VWS V14.01,2013-03-29 23:49:00,
2013-03-29 19:54:00,67.3,53.8,30.18,East,92,1.0,3.0,62,0.00,,FEW050,0.00,79.00,VWS V14.01,2013-03-29 23:54:00,
2013-03-29 19:59:00,67.2,53.8,30.18,East,94,4.0,7.0,62,0.00,,FEW050,0.00,79.00,VWS V14.01,2013-03-29 23:59:00,
2013-03-29 20:04:00,67.1,53.7,30.18,East,80,4.0,5.0,62,0.00,,FEW050,0.00,79.00,VWS V14.01,2013-03-30 00:04:00,
2013-03-29 20:09:00,67.0,53.6,30.19,ENE,65,2.0,4.0,62,0.00,,FEW050,0.00,79.00,VWS V14.01,2013-03-30 00:09:00,
2013-03-29 20:14:00,66.9,53.5,30.19,East,85,1.0,5.0,62,0.00,,FEW050,0.00,79.00,VWS V14.01,2013-03-30 00:14:00,
2013-03-29 20:19:00,66.8,53.4,30.19,ENE,63,1.0,4.0,62,0.00,,FEW050,0.00,79.00,VWS V14.01,2013-03-30 00:19:00,
2013-03-29 20:24:00,66.7,53.3,30.19,ENE,71,3.0,4.0,62,0.00,,FEW050,0.00,79.00,VWS V14.01,2013-03-30 00:24:00,
2013-03-29 20:29:00,66.6,53.2,30.19,East,86,2.0,3.0,62,0.00,,FEW050,0.00,79.00,VWS V14.01,2013-03-30 00:29:00,
2013-03-29 20:34:00,66.5,53.5,30.19,East,87,2.0,2.0,63,0.00,,FEW050,0.00,79.00,VWS V14.01,2013-03-30 00:34:00,
2013-03-29 20:39:00,66.5,53.5,30.19,ENE,76,2.0,3.0,63,0.00,,FEW050,0.00,79.00,VWS V14.01,2013-03-30 00:39:00,
2013-03-29 20:44:00,66.3,53.3,30.19,ENE,76,0.0,0.0,63,0.00,,FEW050,0.00,79.00,VWS V14.01,2013-03-30 00:44:00,
2013-03-29 20:49:00,66.2,53.2,30.19,ENE,76,0.0,3.0,63,0.00,,FEW050,0.00,79.00,VWS V14.01,2013-03-30 00:49:00,
2013-03-29 20:54:00,66.1,53.6,30.20,ENE,76,0.0,2.0,64,0.00,,FEW050,0.00,79.00,VWS V14.01,2013-03-30 00:54:00,
2013-03-29 20:59:00,66.0,53.5,30.20,ENE,76,0.0,3.0,64,0.00,,FEW050,0.00,79.00,VWS V14.01,2013-03-30 00:59:00,
2013-03-29 21:04:00,65.9,53.4,30.20,ENE,76,0.0,2.0,64,0.00,,FEW050,0.00,79.00,VWS V14.01,2013-03-30 01:04:00,
2013-03-29 21:09:00,65.8,53.7,30.20,ENE,76,2.0,2.0,65,0.00,,FEW050,0.00,79.00,VWS V14.01,2013-03-30 01:09:00,
2013-03-29 21:14:00,65.7,53.6,30.20,ENE,76,1.0,1.0,65,0.00,,FEW050,0.00,79.00,VWS V14.01,2013-03-30 01:14:00,
2013-03-29 21:19:00,65.6,53.5,30.20,ENE,76,0.0,0.0,65,0.00,,FEW050,0.00,79.00,VWS V14.01,2013-03-30 01:19:00,
2013-03-29 21:24:00,65.5,53.4,30.20,ENE,76,0.0,0.0,65,0.00,,FEW050,0.00,79.00,VWS V14.01,2013-03-30 01:24:00,
2013-03-29 21:29:00,65.3,53.7,30.21,ENE,76,0.0,1.0,66,0.00,,FEW050,0.00,79.00,VWS V14.01,2013-03-30 01:29:00,
2013-03-29 21:34:00,65.2,53.6,30.21,ENE,76,0.0,1.0,66,0.00,,FEW050,0.00,79.00,VWS V14.01,2013-03-30 01:34:00,
2013-03-29 21:39:00,65.1,53.5,30.21,ENE,76,0.0,0.0,66,0.00,,FEW050,0.00,79.00,VWS V14.01,2013-03-30 01:39:00,
2013-03-29 21:44:00,65.0,53.8,30.21,ENE,76,0.0,1.0,67,0.00,,FEW050,0.00,79.00,VWS V14.01,2013-03-30 01:44:00,
2013-03-29 21:49:00,64.9,53.7,30.21,ENE,76,0.0,2.0,67,0.00,,FEW050,0.00,79.00,VWS V14.01,2013-03-30 01:49:00,
2013-03-29 21:54:00,64.8,53.6,30.21,ENE,76,0.0,1.0,67,0.00,,FEW050,0.00,79.00,VWS V14.01,2013-03-30 01:54:00,
2013-03-29 21:59:00,64.7,53.5,30.21,ENE,76,0.0,0.0,67,0.00,,FEW050,0.00,79.00,VWS V14.01,2013-03-30 01:59:00,
2013-03-29 22:04:00,64.6,53.8,30.21,ENE,76,0.0,1.0,68,0.00,,FEW050,0.00,79.00,VWS V14.01,2013-03-30 02:04:00,
2013-03-29 22:09:00,64.5,53.7,30.21,ENE,76,0.0,0.0,68,0.00,,FEW050,0.00,79.00,VWS V14.01,2013-03-30 02:09:00,
2013-03-29 22:14:00,64.4,54.0,30.22,ENE,76,0.0,0.0,69,0.00,,FEW050,0.00,79.00,VWS V14.01,2013-03-30 02:14:00,
2013-03-29 22:19:00,64.3,53.9,30.22,ENE,76,0.0,0.0,69,0.00,,FEW050,0.00,79.00,VWS V14.01,2013-03-30 02:19:00,
2013-03-29 22:24:00,64.3,53.9,30.22,ENE,76,0.0,0.0,69,0.00,,FEW050,0.00,79.00,VWS V14.01,2013-03-30 02:24:00,
2013-03-29 22:29:00,64.1,53.7,30.22,ENE,76,0.0,0.0,69,0.00,,FEW050,0.00,79.00,VWS V14.01,2013-03-30 02:29:00,
2013-03-29 22:34:00,64.0,53.6,30.22,ENE,76,0.0,0.0,69,0.00,,FEW050,0.00,79.00,VWS V14.01,2013-03-30 02:34:00,
2013-03-29 22:39:00,63.9,53.5,30.22,ENE,76,0.0,0.0,69,0.00,,FEW050,0.00,79.00,VWS V14.01,2013-03-30 02:39:00,
2013-03-29 22:44:00,63.8,53.8,30.22,ENE,76,0.0,0.0,70,0.00,,FEW050,0.00,79.00,VWS V14.01,2013-03-30 02:44:00,
2013-03-29 22:49:00,63.8,53.8,30.22,ENE,76,0.0,0.0,70,0.00,,FEW050,0.00,79.00,VWS V14.01,2013-03-30 02:49:00,
2013-03-29 22:54:00,63.7,54.1,30.22,ENE,76,0.0,0.0,71,0.00,,FEW050,0.00,79.00,VWS V14.01,2013-03-30 02:54:00,
2013-03-29 22:59:00,63.6,54.0,30.22,ENE,76,0.0,0.0,71,0.00,,FEW050,0.00,79.00,VWS V14.01,2013-03-30 02:59:00,
2013-03-29 23:04:00,63.5,53.9,30.22,ENE,76,0.0,1.0,71,0.00,,FEW050,0.00,79.00,VWS V14.01,2013-03-30 03:04:00,
2013-03-29 23:09:00,63.4,53.8,30.22,ENE,76,0.0,1.0,71,0.00,,FEW050,0.00,79.00,VWS V14.01,2013-03-30 03:09:00,
2013-03-29 23:14:00,63.4,53.8,30.22,ENE,76,0.0,1.0,71,0.00,,FEW050,0.00,79.00,VWS V14.01,2013-03-30 03:14:00,
2013-03-29 23:19:00,63.3,53.8,30.22,ENE,76,0.0,1.0,71,0.00,,FEW050,0.00,79.00,VWS V14.01,2013-03-30 03:19:00,
2013-03-29 23:24:00,63.3,53.8,30.22,ENE,76,0.0,0.0,71,0.00,,FEW050,0.00,79.00,VWS V14.01,2013-03-30 03:24:00,
2013-03-29 23:29:00,63.2,53.7,30.22,ENE,76,1.0,1.0,71,0.00,,FEW050,0.00,79.00,VWS V14.01,2013-03-30 03:29:00,
2013-03-29 23:34:00,63.1,53.6,30.22,ENE,76,0.0,0.0,71,0.00,,FEW050,0.00,79.00,VWS V14.01,2013-03-30 03:34:00,
2013-03-29 23:39:00,63.1,53.6,30.22,ENE,76,0.0,0.0,71,0.00,,FEW050,0.00,79.00,VWS V14.01,2013-03-30 03:39:00,
2013-03-29 23:44:00,63.0,53.5,30.22,ENE,76,0.0,0.0,71,0.00,,FEW050,0.00,79.00,VWS V14.01,2013-03-30 03:44:00,
2013-03-29 23:49:00,63.0,53.8,30.22,ENE,76,0.0,0.0,72,0.00,,FEW050,0.00,79.00,VWS V14.01,2013-03-30 03:49:00,
2013-03-29 23:54:00,62.9,53.8,30.22,ENE,76,0.0,0.0,72,0.00,,FEW050,0.00,79.00,VWS V14.01,2013-03-30 03:54:00,
2013-03-29 23:59:00,62.9,53.8,30.22,ENE,76,0.0,1.0,72,0.00,,FEW050,0.00,79.00,VWS V14.01,2013-03-30 03:59:00,